Regional Weather Roundup
Issued by NWS Burlington, VT

Home | Current Version | Previous Version | Text Only | Print | Product List | Glossary On
Versions: 1 2 3 4 5 6 7 8 9 10 11 12 13 14 15 16 17 18 19 20 21 22 23 24 25 26 27 28 29 30 31 32 33 34 35 36 37 38 39 40 41 42 43 44 45 46 47 48 49 50
000
ASUS41 KBTV 291110
RWRBTV
VERMONT REGIONAL WEATHER ROUNDUP
NATIONAL WEATHER SERVICE BURLINGTON VT
600 AM EST THU JAN 29 2015

NOTE: "FAIR" INDICATES FEW OR NO CLOUDS BELOW 12,000 FEET WITH NO
SIGNIFICANT WEATHER AND/OR OBSTRUCTIONS TO VISIBILITY.

* THESE REPORTS ARE NOT UNDER NWS QUALITY CONTROL AND/OR DO NOT
  REPORT WEATHER SUCH AS PRECIPITATION AND FOG.

VTZ001>019-291200-
_____VERMONT_____


CITY           SKY/WX    TMP DP  RH WIND       PRES   REMARKS
BURLINGTON     PTSUNNY   -2  -9  72 NE3       30.31F
MONTPELIER     MOSUNNY  -10 -15  78 CALM      30.30S
MORRISVILLE    MOSUNNY  -14 -20  74 CALM      30.31S
ST. JOHNSBURY*   N/A    -13 -18  78 MISG      30.32S
MIDDLEBURY*    FAIR      -3  -6  84 CALM      30.29F
RUTLAND*       SUNNY     -2  -6  84 SE8       30.27F
SPRINGFIELD    MOSUNNY   -9 -13  83 CALM      30.31F
HIGHGATE*      FAIR      -4  -9  79 SE6       30.31S
NEWPORT*       FAIR      -9 -14  80 SW8       30.27S
BENNINGTON     PTSUNNY   -5  -9  83 CALM      30.26F

_____LAKE CHAMPLAIN_____


CITY           SKY/WX    TMP DP  RH WIND       PRES   REMARKS

$$

NYZ007-026>031-035-052-083-291200-
_____NORTHERN NEW YORK_____


CITY           SKY/WX    TMP DP  RH WIND       PRES   REMARKS
PLATTSBURGH    MOSUNNY   -3  -6  87 CALM      30.31S
SARANAC LAKE   MOSUNNY  -18 -22  82 CALM      30.17S
MASSENA        MOSUNNY   -5 -11  75 CALM      30.28F
OGDENSBURG*    SUNNY     -2  -8  78 CALM      30.25F
POTSDAM*       SUNNY      7  -2  66 S5        30.24F
WATERTOWN      MOSUNNY    2  -3  80 E5        30.24F
FT DRUM        FAIR       2  -6  67 SE14      30.21F WCI -16
ALBANY         MOSUNNY   -2  -8  76 CALM      30.33F
GLENS FALLS    MOSUNNY   -8 -14  74 CALM      30.32F

$$
NHZ002-005-011-291200-
_____NEW HAMPSHIRE_____


CITY           SKY/WX    TMP DP  RH WIND       PRES   REMARKS
LEBANON        MOSUNNY   -6 -11  79 CALM      30.31F
KEENE          MOSUNNY   -8 -11  84 CALM      30.29R
MT WASHINGTON  MOSUNNY   12   5  73 N10         N/A  WCI  -1
PLYMOUTH       FAIR       6  -2  71 CALM      30.27S
WHITEFIELD     MOSUNNY  -22 -30  66 CALM      30.27F

$$

_____REGIONAL QUEBEC LOCATIONS_____


CITY           SKY/WX    TMP DP  RH WIND       PRES   REMARKS
MONTREAL       SUNNY      5  -4  66 SE5       30.30S
QUEBEC CITY    MOSUNNY    3  -4  72 W13       30.29R WCI -14
SHERBROOKE     SUNNY    -15 -18  84 SE2       30.28S

_____REGIONAL ONTARIO LOCATIONS_____


CITY           SKY/WX    TMP DP  RH WIND       PRES   REMARKS
OTTAWA         PTSUNNY   -2  -8  78 NE5       30.24F

______KEY______
VSB  - VISIBILITY IN MILES
WCI  - WIND CHILL INDEX
HX   - HEAT INDEX
$$
NNNN


USA.gov is the U.S. government's official web portal to all federal, state and local government web resources and services.